Weather History for KINK - September, 2012

Change the Weather History Date:

Wednesday, September 26, 2012

  Actual Average Record
Temperature  
Mean Temperature 78 °F -  
Max Temperature 93 °F 85 °F 107 °F (2005)
Min Temperature 66 °F 56 °F 41 °F (2000)
Cooling Degree Days 14    
Growing Degree Days 28 (Base 50)    
Moisture  
Dew Point 55 °F    
Average Humidity 48    
Maximum Humidity 70    
Minimum Humidity 26    
Precipitation  
Precipitation 0.00 in - - ()
Sea Level Pressure  
Sea Level Pressure 29.83 in    
Wind  
Wind Speed 9 mph (SE)    
Max Wind Speed 21 mph    
Max Gust Speed 36 mph    
Visibility 10 miles    
Events Thunderstorm    
Averages and records for this station are not official NWS values.
T = Trace of Precipitation, MM = Missing Value Source: NWS Daily Summary

Daily Weather History Graph

Daily Weather History Graph

Search for Another Location

Airport or City:

Trip Planner

Search our weather history database for the weather conditions in past years. The results will help you decide how hot, cold, wet, or windy it might be!

Date:

Astronomy

Sep. 26, 2012 Rise Set
Actual Time 7:43 AM CDT 7:43 PM CDT
Civil Twilight 7:19 AM CDT 8:07 PM CDT
Nautical Twilight 6:51 AM CDT 8:36 PM CDT
Astronomical Twilight 6:22 AM CDT 9:04 PM CDT
Moon 5:35 PM CDT (9/26) 4:22 AM CDT (9/26)
Length of Visible Light 12h 48m
Length of Day
11h 59m
Waxing Gibbous, 88% of the Moon is Illuminated
Sep 26
Waxing Gibbous
Sep 29
Full
Oct 8
Last Quarter
Oct 15
New
Oct 21
First Quarter

Hourly Weather History & Observations

Time (CDT) Temp. Heat Index Dew Point Humidity Pressure Visibility Wind Dir Wind Speed Gust Speed Precip Events Conditions
12:53 AM 72.0 °F - 51.1 °F 48% 29.77 in 10.0 mi SE 8.1 mph - N/A   Clear
1:53 AM 69.1 °F - 52.0 °F 54% 29.77 in 10.0 mi SE 5.8 mph - N/A   Clear
2:53 AM 69.8 °F - 53.6 °F 56% 29.91 in 10.0 mi SE 6.9 mph - N/A   Clear
3:53 AM 69.1 °F - 55.0 °F 61% 29.76 in 10.0 mi SE 6.9 mph - N/A   Clear
4:53 AM 70.0 °F - 55.9 °F 61% 29.75 in 10.0 mi SE 10.4 mph - N/A   Clear
5:53 AM 69.1 °F - 57.0 °F 65% 29.76 in 10.0 mi SE 10.4 mph - N/A   Clear
6:53 AM 68.0 °F - 57.2 °F 68% 29.91 in 10.0 mi SE 5.8 mph - N/A   Clear
7:53 AM 66.9 °F - 57.0 °F 70% 29.80 in 10.0 mi SE 6.9 mph - N/A   Clear
8:53 AM 69.1 °F - 57.9 °F 68% 29.83 in 10.0 mi SE 9.2 mph - N/A   Clear
9:53 AM 75.0 °F - 59.0 °F 57% 29.83 in 10.0 mi SSE 11.5 mph 20.7 mph N/A   Clear
10:53 AM 79.0 °F - 60.1 °F 52% 29.84 in 10.0 mi SSE 10.4 mph - N/A   Clear
11:53 AM 84.0 °F 83.8 °F 59.0 °F 43% 29.84 in 10.0 mi SSE 11.5 mph - N/A   Clear
12:53 PM 84.0 °F 83.3 °F 57.0 °F 40% 29.83 in 10.0 mi SE 6.9 mph - N/A   Clear
1:53 PM 87.1 °F 85.3 °F 55.0 °F 33% 29.83 in 10.0 mi Variable 3.5 mph - N/A   Clear
2:53 PM 89.1 °F 87.1 °F 55.0 °F 31% 29.80 in 10.0 mi Calm Calm - N/A   Partly Cloudy
3:53 PM 90.0 °F - 51.1 °F 26% 29.78 in 10.0 mi Variable 4.6 mph - N/A   Clear
4:53 PM 91.4 °F - 51.8 °F 26% 29.90 in 10.0 mi ENE 6.9 mph - N/A   Clear
5:15 PM 82.4 °F 81.4 °F 53.6 °F 37% 29.91 in 9.0 mi South 19.6 mph 35.7 mph N/A   Squalls
5:40 PM 84.2 °F 82.8 °F 53.6 °F 35% 29.92 in 10.0 mi SSE 19.6 mph 33.4 mph N/A Thunderstorm Clear
5:53 PM 84.0 °F - 50.0 °F 31% 29.79 in 10.0 mi SSE 20.7 mph 29.9 mph N/A   Clear
6:53 PM 84.9 °F - 48.0 °F 28% 29.80 in 10.0 mi SE 13.8 mph - N/A   Clear
7:53 PM 80.1 °F - 51.1 °F 36% 29.81 in - SE 5.8 mph - N/A   Clear
8:53 PM 75.9 °F - 54.0 °F 46% 29.84 in - SSE 9.2 mph - N/A   Clear
9:53 PM 75.0 °F - 59.0 °F 57% 29.85 in - ESE 10.4 mph - N/A   Clear
10:53 PM 75.0 °F - 60.1 °F 60% 29.85 in - ESE 6.9 mph - N/A   Clear
11:53 PM 77.0 °F - 60.1 °F 56% 29.86 in - SE 9.2 mph - N/A   Clear